DateTimeUTC,F1_A11,F1_S11,BsB_S11,BsG_S11,BsR_S11,BbsB_S11,BbsG_S11,BbsR_S11,BaB_A11,BaG_A11,BaR_A11,Tu_S11,T_S11,Uu_S11,U_S11,P_S11,T1_A11
2021-10-30T09:00:00Z,00000200,21000000,,,,,,,0000.24,0000.03,0000.17,18.1,25.1,,00.0,0646.5,31.1
2021-10-30T09:01:00Z,00000200,21000000,,,,,,,-000.08,0000.40,0000.33,18.1,25.1,,00.0,0646.6,31.1
2021-10-30T09:02:00Z,00000200,21000000,,,,,,,0000.13,-000.19,-000.48,18.1,25.1,,00.0,0646.6,31.1
2021-10-30T09:03:00Z,00000200,61000000,,,,,,,0000.05,0000.16,0000.17,18.1,25.1,,00.0,0646.6,31.1
2021-10-30T09:04:00Z,00000200,41000000,-000.03,0000.22,-000.01,0000.22,0000.38,-000.17,0000.10,0000.25,-000.22,18.5,25.1,,00.0,0647.5,31.1
2021-10-30T09:05:00Z,00000200,01000000,0000.36,0000.08,0000.31,-000.25,0000.44,0000.10,0000.10,0000.22,0000.38,18.6,25.1,,00.0,0647.6,31.1
2021-10-30T09:06:00Z,00000200,01000000,0000.37,-000.16,0000.17,-000.06,0000.19,0000.30,0000.22,0000.14,0000.05,18.6,25.1,,00.0,0647.6,31.1
2021-10-30T09:07:00Z,00000200,01000000,0000.55,0000.15,0000.34,0000.18,0000.02,0000.04,-000.21,-000.13,0000.17,18.5,25.0,,00.0,0647.6,31.1
2021-10-30T09:08:00Z,00000200,01000000,-000.03,0000.18,-000.12,0000.17,-000.05,0000.20,0000.38,0000.18,-000.15,18.4,25.0,,00.0,0647.6,31.0
2021-10-30T09:09:00Z,00000200,01000000,0000.84,0000.17,-000.14,0000.71,0000.32,0000.02,-000.00,-000.01,0000.12,18.3,25.0,,00.0,0647.6,31.0
2021-10-30T09:10:00Z,00000200,01000000,0000.14,0000.17,0000.08,-000.48,-000.01,0000.24,-000.28,-000.26,0000.15,18.3,24.9,,00.0,0647.5,31.0
2021-10-30T09:11:00Z,00000200,01000000,-000.17,0000.36,0000.07,0000.41,0000.57,-000.03,0000.26,0000.47,-000.29,18.2,24.9,,00.0,0647.5,31.0
2021-10-30T09:12:00Z,00000200,01000000,0000.77,-000.10,0000.15,0000.69,0000.48,0000.16,0000.17,-000.13,0000.23,18.2,24.8,,00.0,0647.6,31.0
2021-10-30T09:13:00Z,00000200,01000000,-000.10,0000.16,-000.33,0000.54,0000.27,-000.09,0000.06,-000.12,0000.19,18.2,24.9,,00.0,0647.6,31.1
2021-10-30T09:14:00Z,00000200,01000000,0000.30,0000.23,0000.23,0000.29,0000.15,0000.10,0000.15,0000.39,0000.06,18.3,24.9,,00.0,0647.6,31.0
2021-10-30T09:15:00Z,00000200,01000000,0000.44,-000.31,-000.06,0000.45,0000.34,0000.04,-000.17,0000.11,-000.02,18.4,24.9,,00.0,0647.6,31.0
2021-10-30T09:16:00Z,00000200,01000000,-000.04,0000.07,0000.38,0000.45,-000.02,0000.03,0000.31,-000.17,0000.11,18.4,24.9,,00.0,0647.6,31.1
2021-10-30T09:17:00Z,00000200,01000000,0000.62,0000.59,-000.15,-000.26,-000.12,0000.26,0000.45,0000.54,-000.08,18.5,25.0,,00.0,0647.6,31.1
2021-10-30T09:18:00Z,00000200,01000000,0000.88,0000.58,0000.11,0000.40,0000.23,0000.01,0000.11,-000.07,0000.23,18.6,25.0,,00.0,0647.7,31.1
2021-10-30T09:19:00Z,00000200,01000000,0000.40,0000.24,0000.10,0000.67,-000.02,0000.24,-000.26,0000.17,0000.08,18.6,25.0,,00.0,0647.7,31.1
2021-10-30T09:20:00Z,00000200,01000000,-000.26,-000.12,0000.03,0000.34,0000.15,-000.11,0000.17,-000.11,0000.24,18.6,25.0,,00.0,0647.7,31.1
2021-10-30T09:21:00Z,00000200,01000000,0000.18,0000.06,-000.02,0000.23,0000.34,0000.11,0000.30,0000.08,-000.06,18.6,25.0,,00.0,0647.7,31.1
2021-10-30T09:22:00Z,00000200,01000000,0000.27,0000.12,0000.28,-000.12,0000.39,0000.08,-000.03,-000.26,-000.43,18.5,25.0,,00.0,0647.7,31.1
2021-10-30T09:23:00Z,00000200,01000000,0000.13,0000.06,0000.03,0000.66,0000.43,0000.07,-000.15,0000.24,0000.24,18.4,25.0,,00.0,0647.7,31.1
2021-10-30T09:24:00Z,00000200,01000000,0000.87,-000.22,0000.09,-000.39,-000.09,0000.06,-000.06,0000.11,-000.14,18.3,24.9,,00.0,0647.6,31.0
2021-10-30T09:25:00Z,00000200,01000000,0000.33,0000.21,-000.31,0000.10,0000.31,-000.14,0000.08,-000.13,0000.31,18.2,24.9,,00.0,0647.6,31.0
2021-10-30T09:26:00Z,00000200,01000000,0000.12,0000.19,-000.06,-000.23,0000.20,0000.29,0000.04,0000.09,0000.11,18.2,24.8,,00.0,0647.6,31.0
2021-10-30T09:27:00Z,00000200,01000000,0000.80,0000.19,0000.06,0000.15,0000.39,0000.05,0000.30,0000.16,-000.10,18.2,24.8,,00.0,0647.6,31.0
2021-10-30T09:28:00Z,00000200,01000000,0000.46,0000.17,-000.18,-000.45,0000.19,0000.03,0000.28,0000.14,0000.12,18.2,24.8,,00.0,0647.6,31.0
2021-10-30T09:29:00Z,00000200,01000000,0000.10,0000.24,0000.47,0000.41,0000.30,0000.32,-000.32,0000.08,-000.04,18.3,24.8,,00.0,0647.7,31.1
2021-10-30T09:30:00Z,00000200,01000000,-000.02,0000.30,-000.19,0000.13,0000.53,0000.01,0000.33,0000.12,0000.11,18.4,24.9,,00.0,0647.7,31.1
2021-10-30T09:31:00Z,00000200,01000000,0000.43,0000.15,-000.02,-000.06,0000.14,-000.13,-000.22,-000.18,0000.15,18.4,24.9,,00.0,0647.7,31.1
2021-10-30T09:32:00Z,00000200,01000000,-000.74,-000.20,0000.10,0000.07,-000.18,-000.28,0000.09,0000.38,0000.18,18.5,24.9,,00.0,0647.7,31.1
2021-10-30T09:33:00Z,00000200,01000000,0000.02,0000.02,0000.21,-000.49,0000.09,0000.39,0000.33,-000.06,-000.13,18.5,25.0,,00.0,0647.7,31.1
2021-10-30T09:34:00Z,00000200,01000000,0001.28,0000.61,0000.40,-000.20,0000.28,0000.15,-000.19,0000.14,0000.14,18.6,25.0,,00.0,0647.8,31.1
2021-10-30T09:35:00Z,00000200,01000000,0000.23,-000.13,-000.01,0000.22,0000.27,0000.60,0000.19,-000.05,-000.19,18.6,25.0,,00.0,0647.7,31.1
2021-10-30T09:36:00Z,00000200,01000000,0000.70,0000.32,0000.31,0000.16,-000.02,0000.31,-000.11,0000.23,0000.07,18.5,25.0,,00.0,0647.7,31.1
2021-10-30T09:37:00Z,00000200,01000000,0001.13,0000.15,0000.09,0001.07,0000.47,0000.23,0000.16,-000.21,0000.16,18.4,24.9,,00.0,0647.7,31.0
2021-10-30T09:38:00Z,00000200,01000000,0000.94,0000.14,0000.06,-000.17,0000.51,0000.03,0000.15,0000.25,0000.03,18.3,24.9,,00.0,0647.7,31.0
2021-10-30T09:39:00Z,00000200,01000000,0000.44,0000.28,0000.30,0000.55,0000.18,0000.14,0000.10,-000.21,-000.12,18.3,24.9,,00.0,0647.7,31.0
2021-10-30T09:40:00Z,00000200,01000000,0000.90,0000.28,0000.08,0000.08,0000.13,-000.02,0000.22,0000.10,0000.25,18.2,24.8,,00.0,0647.7,31.0
2021-10-30T09:41:00Z,00000200,01000000,0000.51,0000.01,0000.08,-000.10,0000.10,-000.07,-000.06,0000.01,0000.14,18.1,24.8,,00.0,0647.7,31.0
2021-10-30T09:42:00Z,00000200,01000000,0000.14,0000.45,-000.00,0000.38,-000.01,0000.02,-000.06,0000.07,-000.23,18.0,24.7,,00.0,0647.6,31.0
2021-10-30T09:43:00Z,00000200,01000000,0000.12,0000.49,0000.13,-000.31,0000.08,0000.08,-000.01,0000.22,-000.24,17.9,24.7,,00.0,0647.6,31.0
2021-10-30T09:44:00Z,00000200,01000000,0001.27,0000.09,0000.30,0000.50,0000.28,0000.11,0000.17,0000.02,0000.31,17.9,24.7,,00.0,0647.6,31.0
2021-10-30T09:45:00Z,00000200,01000000,-000.54,0000.20,0000.06,-000.23,0000.18,0000.07,-000.25,-000.02,0000.24,17.8,24.6,,00.0,0647.6,31.0
2021-10-30T09:46:00Z,00000200,01000000,0000.22,0000.05,-000.07,-000.23,0000.02,0000.28,0000.39,-000.28,-000.13,17.7,24.6,,00.0,0647.6,30.9
2021-10-30T09:47:00Z,00000200,01000000,0000.15,-000.05,0000.35,-000.55,0000.32,0000.50,0000.04,0000.12,-000.31,17.7,24.5,,00.0,0647.6,30.9
2021-10-30T09:48:00Z,00000200,01000000,-000.05,0000.00,0000.15,-000.04,0000.17,0000.46,-000.03,0000.01,0000.21,17.6,24.4,,00.0,0647.6,30.9
2021-10-30T09:49:00Z,00000200,01000000,-000.88,-000.09,0000.33,0000.09,0000.07,0000.38,0000.06,0000.05,0000.27,17.5,24.4,,00.0,0647.6,30.9
2021-10-30T09:50:00Z,00000200,01000000,-000.26,-000.01,-000.01,-000.14,0000.05,0000.02,0000.20,0000.21,-000.17,17.5,24.4,,00.0,0647.6,31.0
2021-10-30T09:51:00Z,00000200,01000000,0000.83,-000.05,0000.02,0000.40,0000.12,-000.20,-000.23,0000.15,0000.17,17.6,24.4,,00.0,0647.6,31.0
2021-10-30T09:52:00Z,00000200,01000000,-000.08,0000.23,0000.19,0000.20,0000.10,0000.04,0000.15,0000.04,0000.14,17.7,24.4,,00.0,0647.6,31.0
2021-10-30T09:53:00Z,00000200,01000000,0000.73,0000.04,0000.38,0000.05,0000.25,0000.21,0000.04,-000.27,0000.06,17.7,24.4,,00.0,0647.7,31.0
2021-10-30T09:54:00Z,00000200,01000000,0000.28,0000.51,-000.09,-000.07,0000.59,-000.01,0000.36,0000.54,0000.24,17.8,24.4,,00.0,0647.7,31.0
2021-10-30T09:55:00Z,00000200,01000000,0000.36,-000.08,-000.17,0000.02,0000.11,0000.21,0000.04,-000.15,-000.02,17.8,24.5,,00.0,0647.7,31.0
2021-10-30T09:56:00Z,00000200,01000000,-000.31,0000.03,0000.11,-000.27,0000.24,0000.54,-000.20,0000.33,-000.15,17.9,24.5,,00.0,0647.7,31.0
2021-10-30T09:57:00Z,00000200,41000000,,,,,,,0000.84,0000.47,0000.46,18.0,24.6,,00.0,0647.7,31.0
2021-10-30T09:58:00Z,00000200,61000000,,,,,,,-000.22,-000.02,-000.25,17.8,24.7,,00.0,0646.8,31.0
2021-10-30T09:59:00Z,00000200,21000000,,,,,,,-000.21,-000.31,-000.25,17.8,24.8,,00.0,0646.8,31.0
